Date,TemperatureHighF,TemperatureAvgF,TemperatureLowF,DewpointHighF,DewpointAvgF,DewpointLowF,HumidityHigh,HumidityAvg,HumidityLow,PressureMaxIn,PressureMinIn,WindSpeedMaxMPH,WindSpeedAvgMPH,GustSpeedMaxMPH,PrecipitationSumIn
2013-2-1,24,15,4,15,-1,-10,72,48,39,29.74,29.44,18,13,19,0.00
2013-2-2,37,27,22,22,16,11,76,62,50,29.44,29.32,17,11,17,0.00
2013-2-3,33,27,22,23,16,10,81,64,43,29.38,29.26,18,9,19,0.00
2013-2-4,50,35,24,28,22,16,74,60,40,29.29,29.06,17,13,18,0.00
2013-2-5,47,36,30,30,25,22,77,65,50,29.38,29.12,16,8,16,0.00
2013-2-6,48,36,23,35,26,18,85,71,48,29.50,29.35,17,7,17,0.00
2013-2-7,49,39,31,38,33,3,88,78,22,29.35,29.12,18,7,18,0.25
2013-2-8,38,32,30,32,24,21,81,72,63,29.65,29.26,18,12,19,0.00
2013-2-9,40,34,30,31,25,22,78,70,55,29.62,29.29,39,14,39,0.04
2013-2-10,51,44,38,45,39,30,85,80,61,29.29,28.85,35,22,35,0.34
2013-2-11,48,38,28,31,25,-3,77,59,20,29.41,28.97,28,16,28,0.00
2013-2-12,45,34,25,28,24,20,83,68,45,29.41,29.20,7,3,7,0.00
2013-2-13,52,40,29,32,27,24,85,62,36,29.20,29.03,15,7,15,0.16
2013-2-14,51,41,32,33,29,27,82,64,44,29.29,29.03,16,10,16,0.16
2013-2-15,38,32,25,27,16,7,76,52,30,29.50,29.29,15,10,15,0.00
2013-2-16,33,26,17,10,7,3,61,46,32,29.50,29.41,14,8,14,0.00
2013-2-17,41,29,14,22,16,5,71,58,41,29.47,29.20,20,13,20,0.00
2013-2-18,60,43,31,44,32,21,84,66,50,29.20,28.79,32,24,32,0.18
2013-2-19,31,25,18,21,10,4,67,54,45,29.53,29.09,25,18,25,0.00
2013-2-20,30,20,9,13,4,-3,70,50,32,29.68,29.53,13,8,13,0.00
2013-2-21,32,24,16,29,18,10,92,77,61,29.59,29.12,26,13,26,0.04
2013-2-22,40,34,31,38,29,26,94,82,71,29.29,29.06,18,7,18,0.09
2013-2-23,34,25,14,26,14,7,76,64,47,29.29,29.24,12,5,12,0.00
2013-2-24,44,29,12,26,17,5,78,62,41,29.41,29.26,8,3,8,0.00
2013-2-25,44,35,25,30,26,20,83,69,52,29.35,29.03,24,13,24,0.00
2013-2-26,36,35,33,33,31,27,91,87,74,29.03,28.67,33,17,33,0.47
2013-2-27,37,33,32,32,29,27,92,84,70,29.09,28.85,15,12,15,0.03
2013-2-28,36,33,32,30,29,27,88,82,74,29.32,29.09,14,9,14,0.00